Time,TemperatureF,DewpointF,PressureIn,WindDirection,WindDirectionDegrees,WindSpeedMPH,WindSpeedGustMPH,Humidity,HourlyPrecipIn,Conditions,Clouds,dailyrainin,SoftwareType,DateUTC
2013-07-11 00:02:00,65.0,58.0,30.04,WNW,301,5.0,6.0,79,0.00,,,0.00,,2013-07-11 05:02:00,
2013-07-11 00:12:00,65.0,59.0,30.04,WNW,300,5.0,7.0,81,0.00,,,0.00,,2013-07-11 05:12:00,
2013-07-11 00:22:00,64.0,58.0,30.05,NW,305,5.0,8.0,81,0.00,,,0.00,,2013-07-11 05:22:00,
2013-07-11 00:32:00,64.0,58.0,30.05,NW,305,5.0,8.0,81,0.00,,,0.00,,2013-07-11 05:32:00,
2013-07-11 00:43:00,65.0,59.0,30.05,NW,307,5.0,8.0,81,0.00,,,0.00,,2013-07-11 05:43:00,
2013-07-11 00:52:00,64.0,58.0,30.05,NW,307,5.0,8.0,82,0.00,,,0.00,,2013-07-11 05:52:00,
2013-07-11 01:01:00,64.0,58.0,30.05,NW,307,5.0,8.0,82,0.00,,,0.00,,2013-07-11 06:01:00,
2013-07-11 01:12:00,64.0,58.0,30.06,NW,308,7.0,9.0,82,0.00,,,0.00,,2013-07-11 06:12:00,
2013-07-11 01:22:00,64.0,58.0,30.06,NW,319,6.0,9.0,82,0.00,,,0.00,,2013-07-11 06:22:00,
2013-07-11 01:32:00,64.0,58.0,30.06,NW,319,6.0,9.0,82,0.00,,,0.00,,2013-07-11 06:32:00,
2013-07-11 01:43:00,64.0,58.0,30.07,NW,315,6.0,9.0,82,0.00,,,0.00,,2013-07-11 06:43:00,
2013-07-11 01:52:00,63.0,58.0,30.07,WNW,302,5.0,8.0,83,0.00,,,0.00,,2013-07-11 06:52:00,
2013-07-11 02:02:00,63.0,58.0,30.07,WNW,302,5.0,8.0,83,0.00,,,0.00,,2013-07-11 07:02:00,
2013-07-11 02:12:00,62.0,57.0,30.07,WNW,302,3.0,6.0,85,0.00,,,0.00,,2013-07-11 07:12:00,
2013-07-11 02:22:00,62.0,58.0,30.07,NW,316,3.0,4.0,86,0.00,,,0.00,,2013-07-11 07:22:00,
2013-07-11 02:32:00,62.0,58.0,30.07,NW,316,3.0,4.0,86,0.00,,,0.00,,2013-07-11 07:32:00,
2013-07-11 02:45:00,62.0,57.0,30.07,NNW,330,4.0,6.0,85,0.00,,,0.00,,2013-07-11 07:45:00,
2013-07-11 02:53:00,63.0,58.0,30.08,NW,323,2.0,5.0,83,0.00,,,0.00,,2013-07-11 07:53:00,
2013-07-11 03:02:00,63.0,58.0,30.08,NW,323,2.0,5.0,83,0.00,,,0.00,,2013-07-11 08:02:00,
2013-07-11 03:11:00,62.0,57.0,30.08,NNW,329,2.0,4.0,84,0.00,,,0.00,,2013-07-11 08:11:00,
2013-07-11 03:22:00,62.0,57.0,30.08,WNW,303,3.0,4.0,85,0.00,,,0.00,,2013-07-11 08:22:00,
2013-07-11 03:34:00,62.0,57.0,30.08,WNW,303,3.0,4.0,85,0.00,,,0.00,,2013-07-11 08:34:00,
2013-07-11 03:43:00,61.0,56.0,30.08,NNW,336,2.0,6.0,85,0.00,,,0.00,,2013-07-11 08:43:00,
2013-07-11 03:53:00,61.0,57.0,30.09,NW,316,3.0,4.0,86,0.00,,,0.00,,2013-07-11 08:53:00,
2013-07-11 04:03:00,61.0,57.0,30.09,NW,316,3.0,4.0,86,0.00,,,0.00,,2013-07-11 09:03:00,
2013-07-11 04:12:00,61.0,57.0,30.09,NW,318,2.0,3.0,87,0.00,,,0.00,,2013-07-11 09:12:00,
2013-07-11 04:21:00,60.0,56.0,30.09,WNW,298,2.0,4.0,88,0.00,,,0.00,,2013-07-11 09:21:00,
2013-07-11 04:33:00,60.0,56.0,30.09,WNW,298,2.0,4.0,88,0.00,,,0.00,,2013-07-11 09:33:00,
2013-07-11 04:43:00,60.0,57.0,30.09,WNW,298,0.0,1.0,89,0.00,,,0.00,,2013-07-11 09:43:00,
2013-07-11 04:53:00,60.0,57.0,30.10,WNW,298,0.0,1.0,89,0.00,,,0.00,,2013-07-11 09:53:00,
2013-07-11 05:01:00,60.0,57.0,30.10,WNW,298,0.0,1.0,89,0.00,,,0.00,,2013-07-11 10:01:00,
2013-07-11 05:12:00,59.0,56.0,30.10,WNW,298,1.0,3.0,91,0.00,,,0.00,,2013-07-11 10:12:00,
2013-07-11 05:22:00,58.0,56.0,30.10,WNW,298,2.0,3.0,92,0.00,,,0.00,,2013-07-11 10:22:00,
2013-07-11 05:33:00,58.0,56.0,30.10,WNW,298,2.0,3.0,92,0.00,,,0.00,,2013-07-11 10:33:00,
2013-07-11 05:43:00,58.0,56.0,30.11,WNW,298,2.0,3.0,92,0.00,,,0.00,,2013-07-11 10:43:00,
2013-07-11 05:52:00,57.0,55.0,30.11,WNW,298,1.0,4.0,93,0.00,,,0.00,,2013-07-11 10:52:00,
2013-07-11 06:02:00,57.0,55.0,30.11,WNW,298,1.0,4.0,93,0.00,,,0.00,,2013-07-11 11:02:00,
2013-07-11 06:12:00,57.0,55.0,30.12,WNW,298,1.0,2.0,94,0.00,,,0.00,,2013-07-11 11:12:00,
2013-07-11 06:22:00,57.0,56.0,30.12,WNW,298,0.0,1.0,95,0.00,,,0.00,,2013-07-11 11:22:00,
2013-07-11 06:32:00,57.0,56.0,30.12,WNW,298,0.0,1.0,95,0.00,,,0.00,,2013-07-11 11:32:00,
2013-07-11 06:43:00,57.0,55.0,30.12,WNW,298,0.0,0.0,94,0.00,,,0.00,,2013-07-11 11:43:00,
2013-07-11 06:53:00,57.0,56.0,30.12,WNW,298,0.0,1.0,95,0.00,,,0.00,,2013-07-11 11:53:00,
2013-07-11 07:01:00,57.0,56.0,30.12,WNW,298,0.0,1.0,95,0.00,,,0.00,,2013-07-11 12:01:00,
2013-07-11 07:12:00,58.0,57.0,30.13,WNW,298,0.0,0.0,95,0.00,,,0.00,,2013-07-11 12:12:00,
2013-07-11 07:22:00,59.0,58.0,30.12,WNW,300,0.0,2.0,95,0.00,,,0.00,,2013-07-11 12:22:00,
2013-07-11 07:33:00,59.0,58.0,30.12,WNW,300,0.0,2.0,95,0.00,,,0.00,,2013-07-11 12:33:00,
2013-07-11 07:43:00,61.0,59.0,30.13,NNW,344,0.0,3.0,94,0.00,,,0.00,,2013-07-11 12:43:00,
2013-07-11 07:54:00,62.0,60.0,30.13,NNW,344,0.0,1.0,93,0.00,,,0.00,,2013-07-11 12:54:00,
2013-07-11 08:13:00,63.0,61.0,30.13,NNW,344,0.0,2.0,93,0.00,,,0.00,,2013-07-11 13:13:00,
2013-07-11 08:23:00,64.0,61.0,30.13,North,349,0.0,2.0,90,0.00,,,0.00,,2013-07-11 13:23:00,
2013-07-11 08:34:00,64.0,61.0,30.13,North,349,0.0,2.0,90,0.00,,,0.00,,2013-07-11 13:34:00,
2013-07-11 08:45:00,66.0,62.0,30.14,ENE,59,0.0,3.0,86,0.00,,,0.00,,2013-07-11 13:45:00,
2013-07-11 08:53:00,67.0,61.0,30.14,ENE,59,0.0,2.0,81,0.00,,,0.00,,2013-07-11 13:53:00,
2013-07-11 09:15:00,68.0,61.0,30.14,ENE,65,0.0,2.0,77,0.00,,,0.00,,2013-07-11 14:15:00,
2013-07-11 09:23:00,69.0,60.0,30.14,ENE,65,0.0,2.0,74,0.00,,,0.00,,2013-07-11 14:23:00,
2013-07-11 09:35:00,69.0,60.0,30.14,ENE,65,0.0,2.0,74,0.00,,,0.00,,2013-07-11 14:35:00,
2013-07-11 09:45:00,71.0,61.0,30.13,East,90,1.0,3.0,71,0.00,,,0.00,,2013-07-11 14:45:00,
2013-07-11 09:54:00,72.0,61.0,30.13,SE,141,0.0,3.0,68,0.00,,,0.00,,2013-07-11 14:54:00,
2013-07-11 10:04:00,72.0,61.0,30.13,SE,141,0.0,3.0,68,0.00,,,0.00,,2013-07-11 15:04:00,
2013-07-11 10:13:00,73.0,61.0,30.13,SE,132,0.0,4.0,67,0.00,,,0.00,,2013-07-11 15:13:00,
2013-07-11 10:24:00,74.0,61.0,30.13,SSE,149,0.0,5.0,64,0.00,,,0.00,,2013-07-11 15:24:00,
2013-07-11 10:37:00,74.0,61.0,30.13,SSE,149,0.0,5.0,64,0.00,,,0.00,,2013-07-11 15:37:00,
2013-07-11 10:46:00,75.0,61.0,30.13,SSW,207,2.0,5.0,62,0.00,,,0.00,,2013-07-11 15:46:00,
2013-07-11 10:55:00,76.0,62.0,30.13,East,92,0.0,3.0,61,0.00,,,0.00,,2013-07-11 15:55:00,
2013-07-11 11:14:00,76.0,62.0,30.13,East,92,0.0,3.0,61,0.00,,,0.00,,2013-07-11 16:14:00,
2013-07-11 11:35:00,77.0,59.0,30.13,WNW,296,0.0,4.0,54,0.00,,,0.00,,2013-07-11 16:35:00,
2013-07-11 11:49:00,77.0,58.0,30.13,West,267,0.0,4.0,52,0.00,,,0.00,,2013-07-11 16:49:00,
2013-07-11 11:56:00,78.0,59.0,30.13,NW,325,2.0,4.0,53,0.00,,,0.00,,2013-07-11 16:56:00,
2013-07-11 12:02:00,78.0,59.0,30.13,NW,325,2.0,4.0,53,0.00,,,0.00,,2013-07-11 17:02:00,
2013-07-11 12:26:00,80.0,60.0,30.12,NE,54,2.0,4.0,51,0.00,,,0.00,,2013-07-11 17:26:00,
2013-07-11 12:38:00,80.0,60.0,30.12,NE,54,2.0,4.0,51,0.00,,,0.00,,2013-07-11 17:38:00,
2013-07-11 12:45:00,80.0,58.0,30.12,SE,132,2.0,5.0,47,0.00,,,0.00,,2013-07-11 17:45:00,
2013-07-11 12:52:00,79.0,57.0,30.11,SSE,166,1.0,5.0,47,0.00,,,0.00,,2013-07-11 17:52:00,
2013-07-11 13:05:00,79.0,57.0,30.11,SSE,166,1.0,5.0,47,0.00,,,0.00,,2013-07-11 18:05:00,
2013-07-11 13:14:00,79.0,57.0,30.11,SSW,204,3.0,6.0,47,0.00,,,0.00,,2013-07-11 18:14:00,
2013-07-11 13:24:00,80.0,58.0,30.11,ESE,114,4.0,7.0,47,0.00,,,0.00,,2013-07-11 18:24:00,
2013-07-11 13:35:00,80.0,58.0,30.11,ESE,114,4.0,7.0,47,0.00,,,0.00,,2013-07-11 18:35:00,
2013-07-11 13:45:00,81.0,58.0,30.11,East,84,2.0,8.0,46,0.00,,,0.00,,2013-07-11 18:45:00,
2013-07-11 13:53:00,81.0,60.0,30.10,ESE,120,1.0,9.0,49,0.00,,,0.00,,2013-07-11 18:53:00,
2013-07-11 14:04:00,81.0,60.0,30.10,ESE,120,1.0,9.0,49,0.00,,,0.00,,2013-07-11 19:04:00,
2013-07-11 14:13:00,81.0,59.0,30.10,South,183,6.0,10.0,48,0.00,,,0.00,,2013-07-11 19:13:00,
2013-07-11 14:23:00,81.0,59.0,30.10,SSW,206,3.0,10.0,48,0.00,,,0.00,,2013-07-11 19:23:00,
2013-07-11 14:38:00,81.0,59.0,30.10,SSW,206,3.0,10.0,48,0.00,,,0.00,,2013-07-11 19:38:00,
2013-07-11 14:55:00,81.0,59.0,30.09,SSE,151,2.0,9.0,47,0.00,,,0.00,,2013-07-11 19:55:00,
2013-07-11 15:13:00,81.0,56.0,30.09,SE,129,3.0,9.0,43,0.00,,,0.00,,2013-07-11 20:13:00,
2013-07-11 15:37:00,82.0,59.0,30.09,SE,128,1.0,7.0,45,0.00,,,0.00,,2013-07-11 20:37:00,
2013-07-11 15:46:00,82.0,59.0,30.09,SSE,164,3.0,13.0,45,0.00,,,0.00,,2013-07-11 20:46:00,
2013-07-11 15:53:00,82.0,59.0,30.08,SSW,204,6.0,10.0,45,0.00,,,0.00,,2013-07-11 20:53:00,
2013-07-11 16:05:00,82.0,59.0,30.08,SSW,204,6.0,10.0,45,0.00,,,0.00,,2013-07-11 21:05:00,
2013-07-11 16:35:00,82.0,60.0,30.07,SSE,165,3.0,10.0,47,0.00,,,0.00,,2013-07-11 21:35:00,
2013-07-11 16:55:00,82.0,59.0,30.06,South,176,1.0,10.0,46,0.00,,,0.00,,2013-07-11 21:55:00,
2013-07-11 17:05:00,82.0,59.0,30.06,South,176,1.0,10.0,46,0.00,,,0.00,,2013-07-11 22:05:00,
2013-07-11 17:16:00,82.0,58.0,30.06,SSW,205,3.0,10.0,44,0.00,,,0.00,,2013-07-11 22:16:00,
2013-07-11 17:24:00,82.0,57.0,30.06,SSW,194,5.0,9.0,43,0.00,,,0.00,,2013-07-11 22:24:00,
2013-07-11 17:54:00,82.0,60.0,30.06,South,174,1.0,8.0,47,0.00,,,0.00,,2013-07-11 22:54:00,
2013-07-11 18:13:00,81.0,59.0,30.05,South,182,4.0,10.0,48,0.00,,,0.00,,2013-07-11 23:13:00,
2013-07-11 18:24:00,81.0,59.0,30.05,SSW,203,7.0,11.0,47,0.00,,,0.00,,2013-07-11 23:24:00,
2013-07-11 18:35:00,81.0,59.0,30.05,SSW,203,7.0,11.0,47,0.00,,,0.00,,2013-07-11 23:35:00,
2013-07-11 18:46:00,80.0,59.0,30.05,SSW,196,6.0,10.0,48,0.00,,,0.00,,2013-07-11 23:46:00,
2013-07-11 18:54:00,80.0,60.0,30.05,SSW,206,8.0,11.0,50,0.00,,,0.00,,2013-07-11 23:54:00,
2013-07-11 19:05:00,80.0,60.0,30.05,SSW,206,8.0,11.0,50,0.00,,,0.00,,2013-07-12 00:05:00,
2013-07-11 19:13:00,79.0,59.0,30.05,SSW,199,7.0,10.0,51,0.00,,,0.00,,2013-07-12 00:13:00,
2013-07-11 19:24:00,79.0,59.0,30.05,SSW,201,6.0,10.0,51,0.00,,,0.00,,2013-07-12 00:24:00,
2013-07-11 19:44:00,78.0,61.0,30.05,SSW,203,4.0,9.0,55,0.00,,,0.00,,2013-07-12 00:44:00,
2013-07-11 19:55:00,77.0,60.0,30.04,SSW,198,3.0,7.0,56,0.00,,,0.00,,2013-07-12 00:55:00,
2013-07-11 20:04:00,77.0,60.0,30.04,SSW,198,3.0,7.0,56,0.00,,,0.00,,2013-07-12 01:04:00,
2013-07-11 20:13:00,77.0,60.0,30.04,SSW,193,2.0,6.0,55,0.00,,,0.00,,2013-07-12 01:13:00,
2013-07-11 20:26:00,76.0,60.0,30.04,South,189,3.0,7.0,57,0.00,,,0.00,,2013-07-12 01:26:00,
2013-07-11 20:36:00,76.0,60.0,30.04,South,189,3.0,7.0,57,0.00,,,0.00,,2013-07-12 01:36:00,
2013-07-11 20:46:00,76.0,60.0,30.03,South,180,2.0,7.0,57,0.00,,,0.00,,2013-07-12 01:46:00,
2013-07-11 21:15:00,74.0,59.0,30.04,SSE,167,0.0,4.0,60,0.00,,,0.00,,2013-07-12 02:15:00,
2013-07-11 21:25:00,74.0,59.0,30.04,SSE,167,0.0,4.0,60,0.00,,,0.00,,2013-07-12 02:25:00,
2013-07-11 21:35:00,74.0,59.0,30.04,SSE,167,0.0,4.0,60,0.00,,,0.00,,2013-07-12 02:35:00,
2013-07-11 21:45:00,73.0,59.0,30.04,SSE,162,1.0,3.0,62,0.00,,,0.00,,2013-07-12 02:45:00,
2013-07-11 21:53:00,72.0,59.0,30.04,SSE,162,0.0,5.0,63,0.00,,,0.00,,2013-07-12 02:53:00,
2013-07-11 22:03:00,72.0,59.0,30.04,SSE,162,0.0,5.0,63,0.00,,,0.00,,2013-07-12 03:03:00,
2013-07-11 22:14:00,71.0,59.0,30.05,SSE,162,0.0,2.0,65,0.00,,,0.00,,2013-07-12 03:14:00,
2013-07-11 22:24:00,71.0,59.0,30.05,South,172,1.0,4.0,66,0.00,,,0.00,,2013-07-12 03:24:00,
2013-07-11 22:37:00,71.0,59.0,30.05,South,172,1.0,4.0,66,0.00,,,0.00,,2013-07-12 03:37:00,
2013-07-11 22:54:00,71.0,59.0,30.05,South,178,2.0,5.0,67,0.00,,,0.00,,2013-07-12 03:54:00,
2013-07-11 23:01:00,71.0,59.0,30.05,South,178,2.0,5.0,67,0.00,,,0.00,,2013-07-12 04:01:00,
2013-07-11 23:11:00,70.0,59.0,30.05,South,179,0.0,4.0,68,0.00,,,0.00,,2013-07-12 04:11:00,
2013-07-11 23:22:00,70.0,60.0,30.05,South,179,1.0,4.0,70,0.00,,,0.00,,2013-07-12 04:22:00,
2013-07-11 23:32:00,70.0,60.0,30.05,South,179,1.0,4.0,70,0.00,,,0.00,,2013-07-12 04:32:00,
2013-07-11 23:43:00,69.0,59.0,30.06,South,179,1.0,3.0,71,0.00,,,0.00,,2013-07-12 04:43:00,
2013-07-11 23:53:00,69.0,60.0,30.06,South,179,0.0,2.0,72,0.00,,,0.00,,2013-07-12 04:53:00,